GW4478 Weather Reports


time (UTC)temp
C
wind
direction
speed
KPH
gust
KPH
rain 1hr
cm
rain 24hr
cm
rain mn
cm
humidity
%
barometer
mb
20260906070026 25 40 9.7 24.1 0.00 0.00 0.00 82 1015.5
20260906065513 25 34 9.7 24.1 0.00 0.00 0.00 82 1015.6
20260906065020 24 9 12.9 24.1 0.00 0.00 0.00 84 1015.6
20260906064534 24 32 12.9 19.3 0.00 0.00 0.00 85 1015.4
20260906064018 24 360 9.7 16.1 0.00 0.00 0.00 85 1015.4
20260906063514 23 5 4.8 6.4 0.00 0.00 0.00 85 1015.4
20260906063034 23 5 0.0 3.2 0.00 0.00 0.00 85 1014.8
20260906062518 23 24 1.6 3.2 0.00 0.00 0.00 86 1014.5
20260906062016 23 51 0.0 3.2 0.00 0.00 0.00 86 1014.5
20260906061515 23 51 1.6 3.2 0.00 0.00 0.00 87 1014.5
20260906061011 23 263 3.2 6.4 0.00 0.00 0.00 87 1014.4
20260906060519 23 191 1.6 6.4 0.00 0.00 0.00 87 1014.5
20260906060023 23 63 3.2 11.3 0.00 0.00 0.00 88 1014.4
20260906055511 23 109 3.2 11.3 0.00 0.00 0.00 89 1014.2
20260906055010 23 103 6.4 11.3 0.00 0.00 0.00 90 1014.4
20260906054526 23 161 0.0 3.2 0.00 0.00 0.00 89 1014.0
20260906054018 23 161 0.0 3.2 0.00 0.00 0.00 88 1013.7
20260906053514 23 161 0.0 3.2 0.00 0.00 0.00 88 1013.5
20260906053030 23 161 0.0 3.2 0.00 0.00 0.00 88 1013.5
20260906052519 23 161 0.0 3.2 0.00 0.00 0.00 88 1013.5
20260906052019 23 161 0.0 3.2 0.00 0.00 0.00 88 1013.4
20260906051514 23 161 0.0 3.2 0.00 0.00 0.00 88 1013.4
20260906051006 23 161 0.0 3.2 0.00 0.00 0.00 88 1013.4
20260906050505 23 161 0.0 0.0 0.00 0.00 0.00 87 1013.5
20260906050018 23 161 0.0 0.0 0.00 0.00 0.00 87 1013.5
20260906045521 23 161 0.0 0.0 0.00 0.00 0.00 86 1013.5
20260906045010 23 161 0.0 3.2 0.00 0.00 0.00 86 1013.6
20260906044526 23 161 0.0 3.2 0.00 0.00 0.00 87 1013.8
20260906044003 23 243 1.6 3.2 0.00 0.00 0.00 86 1014.0
20260906043503 23 38 0.0 0.0 0.00 0.00 0.00 86 1014.0
20260906043027 23 38 0.0 3.2 0.00 0.00 0.00 86 1014.0
20260906042502 23 38 0.0 3.2 0.00 0.00 0.00 86 1014.0
20260906042004 23 38 1.6 3.2 0.00 0.00 0.00 86 1014.0
20260906041516 23 38 1.6 3.2 0.00 0.00 0.00 86 1014.1
20260906041005 23 73 0.0 3.2 0.00 0.00 0.00 86 1014.0
20260906040507 23 73 1.6 3.2 0.00 0.00 0.00 86 1014.0
20260906040037 23 360 0.0 3.2 0.00 0.00 0.00 85 1014.0
20260906035508 23 360 0.0 3.2 0.00 0.00 0.00 85 1014.0
20260906035013 23 360 0.0 1.6 0.00 0.00 0.00 85 1014.0
20260906034526 23 360 0.0 3.2 0.00 0.00 0.00 85 1014.1
20260906034011 23 37 0.0 3.2 0.00 0.00 0.00 85 1014.1
20260906033502 23 37 0.0 3.2 0.00 0.00 0.00 85 1014.0
20260906033003 23 360 1.6 3.2 0.00 0.00 0.00 84 1014.0
20260906032516 23 130 0.0 3.2 0.00 0.00 0.00 84 1014.0
20260906032004 24 130 0.0 3.2 0.00 0.00 0.00 83 1013.9
20260906031508 24 130 0.0 3.2 0.00 0.00 0.00 84 1013.9
20260906031004 24 130 0.0 3.2 0.00 0.00 0.00 84 1013.9
20260906030507 24 72 0.0 3.2 0.00 0.00 0.00 83 1013.9
20260906030012 24 92 0.0 3.2 0.00 0.00 0.00 83 1013.8
20260906025506 24 140 0.0 3.2 0.00 0.00 0.00 82 1013.8
20260906025008 24 140 0.0 3.2 0.00 0.00 0.00 82 1013.8
20260906024538 24 140 1.6 3.2 0.00 0.00 0.00 82 1013.8
20260906024018 24 140 1.6 3.2 0.00 0.00 0.00 82 1013.7
20260906023516 25 89 0.0 3.2 0.00 0.00 0.00 81 1013.6
20260906023026 25 89 0.0 3.2 0.00 0.00 0.00 80 1013.6
20260906022503 25 89 0.0 3.2 0.00 0.00 0.00 80 1013.5
20260906022003 25 89 0.0 3.2 0.00 0.00 0.00 79 1013.4
20260906021517 25 89 0.0 3.2 0.00 0.00 0.00 79 1013.2
20260906021004 25 5 1.6 3.2 0.00 0.00 0.00 78 1013.1
20260906020504 25 5 1.6 3.2 0.00 0.00 0.00 77 1013.1
20260906020032 26 316 0.0 3.2 0.00 0.00 0.00 76 1012.9
20260906015504 26 316 0.0 3.2 0.00 0.00 0.00 75 1012.9
20260906015015 26 316 0.0 3.2 0.00 0.00 0.00 75 1012.9
20260906014534 26 316 0.0 3.2 0.00 0.00 0.00 74 1012.9
20260906014017 26 42 0.0 3.2 0.00 0.00 0.00 74 1012.7
20260906013511 26 42 1.6 3.2 0.00 0.00 0.00 73 1012.8
20260906013038 26 298 0.0 3.2 0.00 0.00 0.00 73 1012.8
20260906012522 26 298 1.6 4.8 0.00 0.00 0.00 73 1012.8
20260906012014 26 206 3.2 4.8 0.00 0.00 0.00 73 1012.8
20260906011535 26 43 1.6 4.8 0.00 0.00 0.00 71 1012.7
20260906011003 27 342 3.2 4.8 0.00 0.00 0.00 70 1012.5
20260906010518 27 352 3.2 4.8 0.00 0.00 0.00 70 1012.7
20260906010011 27 17 1.6 3.2 0.00 0.00 0.00 70 1012.7
20260906005505 27 49 1.6 3.2 0.00 0.00 0.00 69 1012.6
20260906005016 27 50 3.2 3.2 0.00 0.00 0.00 68 1012.6
20260906004534 27 40 1.6 3.2 0.00 0.00 0.00 67 1012.6
20260906004017 28 75 1.6 3.2 0.00 0.00 0.00 65 1012.6
20260906003520 28 179 0.0 4.8 0.00 0.00 0.00 65 1012.5
20260906003018 28 179 1.6 4.8 0.00 0.00 0.00 64 1012.6
20260906002510 28 166 0.0 3.2 0.00 0.00 0.00 63 1012.5
20260906002019 28 166 1.6 4.8 0.00 0.00 0.00 63 1012.5
20260906001534 29 144 1.6 4.8 0.00 0.00 0.00 61 1012.5
20260906001011 29 93 1.6 9.7 0.00 0.00 0.00 60 1012.6
20260906000516 29 94 1.6 9.7 0.00 0.00 0.00 60 1012.7
20260906000005 30 93 3.2 11.3 0.00 0.00 0.00 59 1012.7
20260905235503 30 92 3.2 11.3 0.00 0.00 0.00 59 1012.7
20260905235004 30 73 3.2 6.4 0.00 0.00 0.00 61 1012.7
20260905234523 30 41 1.6 4.8 0.00 0.00 0.00 61 1012.6
20260905234007 30 61 0.0 6.4 0.00 0.00 0.00 60 1012.6
20260905233507 30 40 3.2 12.9 0.00 0.00 0.00 58 1012.5
20260905233025 31 62 3.2 12.9 0.00 0.00 0.00 57 1012.5
20260905232507 31 82 6.4 17.7 0.00 0.00 0.00 56 1012.5
20260905232020 32 17 4.8 17.7 0.00 0.00 0.00 54 1012.5
20260905231527 33 46 6.4 17.7 0.00 0.00 0.00 49 1012.7
20260905231012 34 130 6.4 16.1 0.00 0.00 0.00 49 1012.4
20260905230511 35 44 3.2 16.1 0.00 0.00 0.00 51 1012.3
20260905230031 35 346 8.0 16.1 0.00 0.00 0.00 50 1012.3
20260905225519 35 345 6.4 14.5 0.00 0.00 0.00 49 1012.2
20260905225014 35 9 9.7 14.5 0.00 0.00 0.00 49 1012.0
20260905224508 35 316 8.0 14.5 0.00 0.00 0.00 48 1012.1
20260905224007 35 329 8.0 16.1 0.00 0.00 0.00 48 1012.1
20260905223506 36 352 11.3 16.1 0.00 0.00 0.00 47 1012.2
20260905223019 36 343 6.4 14.5 0.00 0.00 0.00 48 1012.1
20260905222519 36 335 9.7 14.5 0.00 0.00 0.00 47 1012.1
20260905222022 36 336 8.0 12.9 0.00 0.00 0.00 46 1012.1
20260905221553 36 48 3.2 12.9 0.00 0.00 0.00 47 1012.1
20260905221021 36 336 6.4 16.1 0.00 0.00 0.00 46 1012.1
20260905220511 36 360 4.8 16.1 0.00 0.00 0.00 46 1012.1
20260905220039 36 273 9.7 14.5 0.00 0.00 0.00 44 1012.2
20260905215520 36 306 4.8 9.7 0.00 0.00 0.00 44 1012.2
20260905215014 36 329 3.2 9.7 0.00 0.00 0.00 46 1012.2
20260905214534 36 5 4.8 8.0 0.00 0.00 0.00 45 1012.2
20260905214014 36 352 3.2 9.7 0.00 0.00 0.00 46 1012.3
20260905213525 36 292 6.4 9.7 0.00 0.00 0.00 46 1012.3
20260905213011 36 325 1.6 8.0 0.00 0.00 0.00 46 1012.3
20260905212516 36 318 1.6 4.8 0.00 0.00 0.00 47 1012.3
20260905212008 36 112 1.6 3.2 0.00 0.00 0.00 53 1012.3
20260905211533 35 160 0.0 3.2 0.00 0.00 0.00 50 1012.4
20260905211018 35 330 0.0 3.2 0.00 0.00 0.00 50 1012.4
20260905210518 35 344 1.6 6.4 0.00 0.00 0.00 50 1012.4
20260905210029 36 29 0.0 11.3 0.00 0.00 0.00 47 1012.4
20260905205516 36 49 4.8 11.3 0.00 0.00 0.00 47 1012.4
20260905205012 36 9 4.8 14.5 0.00 0.00 0.00 46 1012.3
20260905204535 36 360 8.0 14.5 0.00 0.00 0.00 46 1012.4
20260905204018 36 123 3.2 6.4 0.00 0.00 0.00 46 1012.4
20260905203516 36 289 0.0 6.4 0.00 0.00 0.00 45 1012.5
20260905203037 36 219 3.2 6.4 0.00 0.00 0.00 47 1012.5
20260905202515 36 284 3.2 9.7 0.00 0.00 0.00 47 1012.8
20260905202007 36 49 3.2 9.7 0.00 0.00 0.00 46 1012.8
20260905201504 36 47 6.4 9.7 0.00 0.00 0.00 46 1013.0
20260905201002 37 348 3.2 9.7 0.00 0.00 0.00 45 1012.9
20260905200503 37 327 6.4 9.7 0.00 0.00 0.00 45 1013.0
20260905200006 37 26 3.2 8.0 0.00 0.00 0.00 46 1013.1
20260905195503 37 293 1.6 8.0 0.00 0.00 0.00 47 1013.2
20260905195006 36 313 4.8 6.4 0.00 0.00 0.00 46 1013.4
20260905194504 36 118 1.6 8.0 0.00 0.00 0.00 47 1013.5
20260905194003 36 57 3.2 8.0 0.00 0.00 0.00 47 1013.6
20260905193502 36 360 6.4 8.0 0.00 0.00 0.00 49 1013.6
20260905193005 36 57 0.0 12.9 0.00 0.00 0.00 48 1013.5
20260905192502 36 194 1.6 12.9 0.00 0.00 0.00 47 1013.6
20260905192003 36 343 3.2 9.7 0.00 0.00 0.00 49 1013.6
20260905191504 36 69 3.2 12.9 0.00 0.00 0.00 50 1013.7
20260905191005 36 73 6.4 16.1 0.00 0.00 0.00 49 1013.8
20260905190503 36 41 6.4 16.1 0.00 0.00 0.00 49 1013.9
20260905190006 36 328 4.8 14.5 0.00 0.00 0.00 49 1013.9
20260905185504 36 57 4.8 14.5 0.00 0.00 0.00 50 1014.0
20260905185003 36 24 6.4 9.7 0.00 0.00 0.00 48 1014.1
20260905184505 36 329 4.8 8.0 0.00 0.00 0.00 48 1014.1
20260905184003 36 306 1.6 12.9 0.00 0.00 0.00 49 1014.2
20260905183503 36 43 6.4 12.9 0.00 0.00 0.00 49 1014.3
20260905183004 36 9 4.8 14.5 0.00 0.00 0.00 46 1014.4
20260905182504 36 11 3.2 14.5 0.00 0.00 0.00 51 1014.5
20260905182003 36 68 3.2 9.7 0.00 0.00 0.00 49 1014.5
20260905181505 36 17 4.8 16.1 0.00 0.00 0.00 49 1014.6
20260905181003 35 243 3.2 19.3 0.00 0.00 0.00 49 1014.6
20260905180505 35 348 4.8 19.3 0.00 0.00 0.00 51 1014.7
20260905180004 35 50 4.8 11.3 0.00 0.00 0.00 51 1014.7
20260905175506 35 9 3.2 12.9 0.00 0.00 0.00 52 1014.7
20260905175003 35 156 3.2 12.9 0.00 0.00 0.00 55 1014.7
20260905174503 35 59 6.4 11.3 0.00 0.00 0.00 54 1014.8
20260905174003 35 326 4.8 16.1 0.00 0.00 0.00 54 1014.8
20260905173503 35 319 8.0 16.1 0.00 0.00 0.00 53 1014.9
20260905173005 35 301 6.4 12.9 0.00 0.00 0.00 54 1014.9
20260905172502 35 32 4.8 12.9 0.00 0.00 0.00 54 1014.9
20260905172002 35 352 3.2 16.1 0.00 0.00 0.00 53 1015.1
20260905171504 35 345 11.3 16.1 0.00 0.00 0.00 54 1015.1
20260905171003 35 266 6.4 14.5 0.00 0.00 0.00 55 1015.0
20260905170503 35 317 3.2 11.3 0.00 0.00 0.00 57 1015.1
20260905170006 35 326 1.6 8.0 0.00 0.00 0.00 55 1015.2
20260905165503 34 11 6.4 12.9 0.00 0.00 0.00 56 1015.2
20260905165003 34 297 8.0 12.9 0.00 0.00 0.00 57 1015.3
20260905164505 34 257 3.2 9.7 0.00 0.00 0.00 54 1015.4
20260905164006 33 285 4.8 14.5 0.00 0.00 0.00 56 1015.4
20260905163503 33 337 8.0 12.9 0.00 0.00 0.00 56 1015.5
20260905163008 33 27 3.2 14.5 0.00 0.00 0.00 57 1015.6
20260905162504 33 327 9.7 16.1 0.00 0.00 0.00 55 1015.7
20260905162005 33 257 3.2 16.1 0.00 0.00 0.00 56 1015.7
20260905161509 33 330 3.2 14.5 0.00 0.00 0.00 56 1015.8
20260905161006 33 344 6.4 9.7 0.00 0.00 0.00 55 1015.8
20260905160503 33 336 4.8 14.5 0.00 0.00 0.00 57 1015.9
20260905160006 33 339 6.4 14.5 0.00 0.00 0.00 55 1015.9
20260905155503 33 61 4.8 11.3 0.00 0.00 0.00 56 1016.0
20260905155003 33 333 3.2 8.0 0.00 0.00 0.00 57 1016.0
20260905154507 33 329 3.2 8.0 0.00 0.00 0.00 60 1015.9
20260905154004 33 324 4.8 6.4 0.00 0.00 0.00 59 1015.9
20260905153505 32 360 3.2 11.3 0.00 0.00 0.00 62 1016.1
20260905153007 32 114 6.4 11.3 0.00 0.00 0.00 61 1016.1
20260905152506 32 321 0.0 6.4 0.00 0.00 0.00 64 1016.1
20260905152003 32 313 3.2 8.0 0.00 0.00 0.00 64 1016.1
20260905151510 32 70 3.2 8.0 0.00 0.00 0.00 63 1016.1
20260905151004 32 12 4.8 9.7 0.00 0.00 0.00 64 1016.1
20260905150503 31 26 6.4 8.0 0.00 0.00 0.00 65 1015.9
20260905150008 31 29 1.6 4.8 0.00 0.00 0.00 65 1016.0
20260905145505 31 85 3.2 4.8 0.00 0.00 0.00 67 1016.1
20260905145004 31 53 3.2 4.8 0.00 0.00 0.00 68 1016.1
20260905144509 31 105 3.2 4.8 0.00 0.00 0.00 68 1016.2
20260905144004 31 51 3.2 4.8 0.00 0.00 0.00 69 1016.2
20260905143504 31 44 1.6 3.2 0.00 0.00 0.00 68 1016.3
20260905143020 30 38 0.0 3.2 0.00 0.00 0.00 72 1016.3
20260905142504 30 122 0.0 3.2 0.00 0.00 0.00 72 1016.2
20260905142004 30 155 1.6 3.2 0.00 0.00 0.00 74 1016.3
20260905141510 29 117 1.6 3.2 0.00 0.00 0.00 74 1016.4
20260905141003 29 239 1.6 3.2 0.00 0.00 0.00 76 1016.4
20260905140503 29 128 0.0 3.2 0.00 0.00 0.00 75 1016.5
20260905140010 28 179 0.0 3.2 0.00 0.00 0.00 78 1016.5
20260905135506 28 174 0.0 3.2 0.00 0.00 0.00 82 1016.5
20260905135006 27 205 0.0 3.2 0.00 0.00 0.00 83 1016.6
20260905134513 27 193 1.6 3.2 0.00 0.00 0.00 82 1016.5
20260905134004 27 149 0.0 3.2 0.00 0.00 0.00 85 1016.6
20260905133505 26 149 0.0 3.2 0.00 0.00 0.00 85 1016.5
20260905133010 26 149 0.0 3.2 0.00 0.00 0.00 86 1016.5
20260905132505 26 162 1.6 3.2 0.00 0.00 0.00 87 1016.6
20260905132006 25 158 1.6 3.2 0.00 0.00 0.00 87 1016.5
20260905131514 25 155 1.6 3.2 0.00 0.00 0.00 88 1016.6
20260905131008 25 166 1.6 3.2 0.00 0.00 0.00 89 1016.7
20260905130507 25 148 1.6 3.2 0.00 0.00 0.00 91 1016.7
20260905130012 24 167 1.6 3.2 0.00 0.00 0.00 91 1016.7
20260905125507 24 167 1.6 3.2 0.00 0.00 0.00 92 1016.8
20260905125006 23 169 0.0 3.2 0.00 0.00 0.00 93 1016.7
20260905124514 23 169 0.0 0.0 0.00 0.00 0.00 93 1016.6
20260905124006 23 169 0.0 3.2 0.00 0.00 0.00 94 1016.6
20260905123507 22 169 0.0 3.2 0.00 0.00 0.00 95 1016.6
20260905123019 22 169 0.0 3.2 0.00 0.00 0.00 95 1016.5
20260905122510 22 169 0.0 3.2 0.00 0.00 0.00 95 1016.5
20260905122006 22 169 0.0 3.2 0.00 0.00 0.00 94 1016.4
20260905121520 21 38 0.0 3.2 0.00 0.00 0.00 94 1016.3
20260905121007 21 38 0.0 3.2 0.00 0.00 0.00 94 1016.3
20260905120506 21 38 0.0 3.2 0.00 0.00 0.00 94 1016.2
20260905120016 21 38 0.0 3.2 0.00 0.00 0.00 94 1016.2
20260905115508 21 38 0.0 1.6 0.00 0.00 0.00 94 1016.2
20260905115009 21 38 0.0 3.2 0.00 0.00 0.00 94 1016.2
20260905114516 21 38 0.0 3.2 0.00 0.00 0.00 94 1016.2
20260905114007 21 38 0.0 0.0 0.00 0.00 0.00 94 1016.1
20260905113507 21 38 0.0 0.0 0.00 0.00 0.00 94 1016.0
20260905113014 21 38 0.0 0.0 0.00 0.00 0.00 94 1015.9
20260905112506 21 38 0.0 0.0 0.00 0.00 0.00 1015.8
20260905112010 21 38 0.0 0.0 0.00 0.00 0.00 94 1015.7
20260905111504 21 38 0.0 0.0 0.00 0.00 0.00 94 1015.6
20260905111003 21 38 0.0 0.0 0.00 0.00 0.00 94 1015.5
20260905110502 21 38 0.0 1.6 0.00 0.00 0.00 94 1015.5
20260905110007 21 38 0.0 3.2 0.00 0.00 0.00 94 1015.5
20260905105511 21 38 0.0 3.2 0.00 0.00 0.00 94 1015.4
20260905105005 21 38 0.0 3.2 0.00 0.00 0.00 94 1015.4
20260905104508 21 38 0.0 3.2 0.00 0.00 0.00 94 1015.4
20260905104003 21 38 0.0 3.2 0.00 0.00 0.00 94 1015.3
20260905103508 21 38 0.0 3.2 0.00 0.00 0.00 94 1015.2
20260905103013 21 38 0.0 3.2 0.00 0.00 0.00 94 1015.2
20260905102508 21 38 0.0 3.2 0.00 0.00 0.00 1015.1
20260905102008 21 38 0.0 3.2 0.00 0.00 0.00 93 1015.1
20260905101527 21 38 0.0 0.0 0.00 0.00 0.00 93 1015.1
20260905101013 21 38 0.0 0.0 0.00 0.00 0.00 93 1015.1
20260905100503 21 38 0.0 0.0 0.00 0.00 0.00 93 1015.1
20260905100005 21 38 0.0 0.0 0.00 0.00 0.00 93 1015.2
20260905095504 21 38 0.0 3.2 0.00 0.00 0.00 93 1015.2
20260905095006 21 38 0.0 3.2 0.00 0.00 0.00 93 1015.2
20260905094520 21 38 0.0 3.2 0.00 0.00 0.00 93 1015.1
20260905094006 22 38 0.0 3.2 0.00 0.00 0.00 93 1015.1
20260905093503 22 38 0.0 3.2 0.00 0.00 0.00 93 1015.1
20260905093011 22 38 0.0 3.2 0.00 0.00 0.00 93 1015.0
20260905092507 22 38 0.0 3.2 0.00 0.00 0.00 93 1015.2
20260905092006 22 38 0.0 3.2 0.00 0.00 0.00 93 1015.1
20260905091518 22 38 0.0 3.2 0.00 0.00 0.00 93 1015.1
20260905091007 22 38 0.0 3.2 0.00 0.00 0.00 93 1015.1
20260905090512 22 38 0.0 1.6 0.00 0.00 0.00 93 1015.0
20260905090023 22 38 0.0 0.0 0.00 0.00 0.00 93 1015.0
20260905085504 22 38 0.0 0.0 0.00 0.00 0.00 93 1014.9
20260905085003 22 38 0.0 0.0 0.00 0.00 0.00 93 1014.9
20260905084506 22 38 0.0 0.0 0.00 0.00 0.00 93 1014.9
20260905084004 22 38 0.0 3.2 0.00 0.00 0.00 93 1014.9
20260905083507 22 38 0.0 3.2 0.00 0.00 0.00 93 1015.0
20260905083011 22 38 0.0 3.2 0.00 0.00 0.00 93 1015.1
20260905082506 22 38 0.0 3.2 0.00 0.00 0.00 93 1015.1
20260905082005 22 38 0.0 3.2 0.00 0.00 0.00 93 1015.1
20260905081520 22 38 0.0 3.2 0.00 0.00 0.00 93 1015.0
20260905081011 22 38 0.0 3.2 0.00 0.00 0.00 93 1015.0
20260905080507 22 38 0.0 3.2 0.00 0.00 0.00 92 1014.8
20260905080032 22 38 0.0 3.2 0.00 0.00 0.00 93 1014.7
20260905075511 22 38 0.0 3.2 0.00 0.00 0.00 93 1014.7
20260905075011 22 38 0.0 3.2 0.00 0.00 0.00 93 1014.7
20260905074530 22 38 1.6 3.2 0.00 0.00 0.00 93 1014.7
20260905074004 22 360 1.6 1.6 0.00 0.00 0.00 93 1014.8
20260905073503 22 360 0.0 1.6 0.00 0.00 0.00 92 1014.8
20260905073009 22 360 0.0 0.0 0.00 0.00 0.00 92 1014.7
20260905072514 22 360 0.0 3.2 0.00 0.00 0.00 92 1014.7
20260905072004 22 360 0.0 3.2 0.00 0.00 0.00 92 1014.7
20260905071529 22 360 0.0 1.6 0.00 0.00 0.00 92 1014.7
20260905071006 22 360 0.0 3.2 0.00 0.00 0.00 92 1014.7
20260905070511 22 360 1.6 3.2 0.00 0.00 0.00 92 1014.7